Terminal Aerodrome Forecast
Issued by NWS Mt. Holly, NJ

Home | Current Version | Previous Version | Text Only | Print | Product List | Glossary On
Versions: 1 2 3 4 5 6 7 8 9 10 11 12 13 14 15 16 17 18 19 20 21 22 23 24 25 26 27
000
FTAK31 PANC 280538
TAFABE
TAF
PABE 280538Z 2806/2906 02015KT P6SM SCT060 BKN080
     FM281500 02015G25KT P6SM BKN100
     FM290000 01020G28KT P6SM SKC=

USA.gov is the U.S. government's official web portal to all federal, state and local government web resources and services.